Precipitable_Water
1.10 1.13 1.13 1.13 1.12 1.12 1.12 1.17 1.21 1.28 1.30 1.35 1.36 1.37 1.37 1.35 1.33 1.31 1.34 1.31 1.30 1.27 1.25 1.22 1.20 1.21 1.26 1.26 1.22 1.19 1.18 1.19 1.22 1.23 1.22 1.20 1.21 1.20 1.20 1.19 1.14 1.13 1.14 1.14 1.16 1.13 1.12 1.12 1.14 1.17 1.20 1.16 1.15 1.17 1.17 1.17 1.17 1.12 1.08 1.04 0.99 0.99 0.96 0.91 0.82 0.79 0.82 0.85 0.81 0.77 0.79 0.78 0.74 0.74 0.72 0.72 0.73 0.74 0.69 0.61 0.51 0.47 0.45 0.45 0.47
1.06 1.11 1.15 1.13 1.12 1.13 1.14 1.19 1.23 1.27 1.28 1.31 1.33 1.37 1.39 1.39 1.36 1.34 1.30 1.30 1.30 1.25 1.25 1.25 1.23 1.22 1.22 1.27 1.27 1.24 1.20 1.20 1.22 1.23 1.20 1.18 1.18 1.21 1.18 1.16 1.13 1.11 1.11 1.08 1.10 1.11 1.11 1.08 1.10 1.14 1.15 1.11 1.11 1.10 1.12 1.12 1.11 1.06 1.04 1.02 0.98 0.96 0.98 0.91 0.87 0.82 0.78 0.79 0.78 0.78 0.75 0.75 0.69 0.73 0.70 0.70 0.71 0.72 0.65 0.55 0.50 0.48 0.45 0.45 0.47
1.17 1.18 1.18 1.16 1.16 1.18 1.19 1.16 1.19 1.26 1.29 1.31 1.33 1.37 1.40 1.40 1.41 1.34 1.31 1.31 1.31 1.27 1.25 1.26 1.25 1.25 1.23 1.24 1.28 1.27 1.23 1.22 1.24 1.23 1.21 1.18 1.15 1.16 1.17 1.15 1.12 1.08 1.05 1.04 1.06 1.09 1.06 1.05 1.06 1.11 1.13 1.09 1.09 1.09 1.11 1.09 1.10 1.05 1.03 1.02 0.98 0.97 0.98 0.97 0.91 0.84 0.80 0.78 0.78 0.73 0.70 0.70 0.69 0.70 0.72 0.72 0.71 0.70 0.59 0.50 0.48 0.48 0.47 0.47 0.47
1.22 1.27 1.31 1.27 1.24 1.24 1.23 1.22 1.18 1.21 1.25 1.28 1.29 1.33 1.37 1.39 1.40 1.36 1.33 1.33 1.30 1.27 1.27 1.28 1.27 1.26 1.24 1.23 1.24 1.26 1.25 1.24 1.24 1.25 1.22 1.21 1.18 1.15 1.15 1.15 1.12 1.10 1.08 1.05 1.05 1.05 1.02 1.01 1.04 1.08 1.10 1.07 1.08 1.08 1.09 1.08 1.06 1.04 1.02 1.01 0.99 0.97 0.97 0.97 0.96 0.89 0.83 0.75 0.72 0.68 0.68 0.68 0.70 0.71 0.72 0.72 0.68 0.63 0.53 0.48 0.48 0.47 0.47 0.48 0.48
1.18 1.21 1.28 1.31 1.30 1.26 1.26 1.28 1.22 1.17 1.20 1.25 1.26 1.31 1.35 1.37 1.38 1.35 1.35 1.34 1.31 1.26 1.26 1.29 1.27 1.26 1.24 1.21 1.19 1.22 1.25 1.25 1.24 1.24 1.25 1.25 1.21 1.18 1.16 1.15 1.13 1.10 1.10 1.08 1.06 1.04 1.02 1.00 1.03 1.05 1.05 1.03 1.05 1.05 1.06 1.03 1.03 1.01 0.98 0.98 0.97 0.98 0.97 0.95 0.92 0.87 0.79 0.72 0.68 0.69 0.70 0.71 0.72 0.72 0.72 0.66 0.61 0.56 0.52 0.48 0.47 0.47 0.46 0.48 0.50
1.08 1.10 1.20 1.25 1.27 1.24 1.22 1.25 1.22 1.12 1.14 1.21 1.24 1.26 1.30 1.33 1.35 1.36 1.36 1.31 1.29 1.26 1.23 1.24 1.23 1.22 1.23 1.24 1.22 1.20 1.26 1.28 1.26 1.24 1.26 1.26 1.24 1.20 1.18 1.16 1.14 1.11 1.10 1.11 1.08 1.05 1.02 1.02 1.03 1.04 1.02 0.98 0.99 1.01 1.02 1.01 1.01 0.98 0.96 0.96 0.95 0.95 0.90 0.86 0.84 0.81 0.76 0.71 0.68 0.66 0.69 0.69 0.71 0.72 0.67 0.60 0.53 0.50 0.49 0.48 0.48 0.48 0.48 0.49 0.51
1.04 1.06 1.11 1.15 1.17 1.19 1.19 1.20 1.23 1.19 1.11 1.15 1.22 1.26 1.27 1.29 1.34 1.34 1.36 1.33 1.27 1.23 1.23 1.21 1.22 1.21 1.21 1.26 1.24 1.19 1.21 1.27 1.27 1.26 1.27 1.26 1.23 1.20 1.17 1.16 1.14 1.12 1.11 1.11 1.11 1.08 1.06 1.05 1.03 1.03 1.02 1.01 1.00 1.00 1.01 1.00 0.98 0.96 0.95 0.94 0.94 0.88 0.82 0.80 0.79 0.76 0.73 0.70 0.69 0.70 0.72 0.76 0.75 0.67 0.60 0.55 0.52 0.49 0.43 0.42 0.41 0.45 0.49 0.48 0.44
1.19 1.21 1.18 1.14 1.11 1.10 1.10 1.10 1.15 1.22 1.21 1.13 1.14 1.17 1.18 1.23 1.29 1.33 1.34 1.30 1.24 1.22 1.19 1.16 1.17 1.19 1.22 1.26 1.26 1.23 1.21 1.23 1.26 1.26 1.26 1.25 1.22 1.20 1.18 1.14 1.12 1.11 1.12 1.13 1.13 1.11 1.09 1.06 1.04 1.04 1.03 1.03 1.03 1.03 1.03 0.99 0.98 0.94 0.94 0.91 0.88 0.84 0.79 0.77 0.74 0.71 0.68 0.68 0.67 0.69 0.71 0.70 0.68 0.64 0.59 0.53 0.48 0.46 0.44 0.42 0.39 0.41 0.44 0.46 0.46
1.03 1.11 1.14 1.17 1.16 1.14 1.11 1.08 1.09 1.13 1.23 1.18 1.10 1.09 1.14 1.20 1.26 1.31 1.31 1.27 1.25 1.22 1.19 1.16 1.15 1.18 1.24 1.28 1.27 1.23 1.19 1.18 1.23 1.24 1.22 1.22 1.21 1.19 1.18 1.15 1.12 1.10 1.10 1.11 1.12 1.12 1.10 1.07 1.06 1.05 1.04 1.04 1.04 1.04 1.04 1.02 0.96 0.91 0.90 0.88 0.85 0.81 0.77 0.74 0.70 0.67 0.66 0.66 0.66 0.69 0.68 0.66 0.64 0.61 0.57 0.51 0.44 0.41 0.45 0.44 0.41 0.43 0.45 0.43 0.45
0.77 0.80 0.87 0.95 1.05 1.16 1.16 1.10 1.07 1.05 1.05 1.12 1.14 1.10 1.09 1.16 1.24 1.30 1.31 1.27 1.22 1.19 1.18 1.17 1.16 1.16 1.18 1.24 1.27 1.24 1.18 1.16 1.18 1.23 1.25 1.23 1.20 1.20 1.19 1.16 1.13 1.10 1.08 1.08 1.09 1.11 1.11 1.08 1.08 1.07 1.05 1.03 1.01 1.02 1.01 1.00 0.99 0.96 0.92 0.88 0.84 0.79 0.74 0.69 0.66 0.64 0.63 0.63 0.64 0.65 0.64 0.64 0.63 0.64 0.60 0.54 0.49 0.48 0.46 0.44 0.41 0.46 0.48 0.45 0.44
0.71 0.76 0.78 0.81 0.84 0.94 1.05 1.07 1.05 1.01 1.00 1.06 1.18 1.17 1.09 1.13 1.17 1.24 1.27 1.24 1.20 1.18 1.18 1.15 1.15 1.16 1.17 1.22 1.24 1.22 1.17 1.12 1.12 1.18 1.22 1.24 1.23 1.20 1.17 1.15 1.14 1.11 1.09 1.07 1.06 1.08 1.09 1.11 1.10 1.08 1.06 1.03 1.00 0.99 0.98 0.98 0.96 0.95 0.93 0.90 0.85 0.78 0.71 0.66 0.63 0.62 0.62 0.62 0.63 0.64 0.63 0.63 0.66 0.68 0.63 0.55 0.51 0.48 0.45 0.45 0.46 0.47 0.43 0.39 0.35
0.61 0.75 0.85 0.85 0.82 0.82 0.88 0.95 1.00 1.01 1.07 1.13 1.17 1.24 1.13 1.10 1.15 1.21 1.19 1.19 1.18 1.18 1.16 1.15 1.14 1.14 1.16 1.21 1.24 1.22 1.17 1.09 1.09 1.13 1.19 1.22 1.23 1.20 1.19 1.16 1.13 1.10 1.09 1.08 1.08 1.07 1.07 1.09 1.10 1.10 1.07 1.03 1.00 0.97 0.96 0.96 0.95 0.93 0.91 0.87 0.82 0.77 0.73 0.66 0.62 0.61 0.63 0.62 0.60 0.62 0.63 0.66 0.68 0.70 0.64 0.57 0.52 0.51 0.50 0.49 0.48 0.46 0.42 0.38 0.37
0.69 0.65 0.71 0.81 0.83 0.81 0.85 0.89 0.94 1.01 1.09 1.14 1.16 1.22 1.23 1.20 1.16 1.15 1.15 1.16 1.16 1.14 1.12 1.12 1.13 1.14 1.14 1.15 1.19 1.22 1.19 1.11 1.08 1.11 1.16 1.20 1.22 1.21 1.20 1.18 1.14 1.10 1.08 1.08 1.07 1.06 1.07 1.08 1.08 1.09 1.07 1.04 1.00 0.97 0.94 0.93 0.93 0.92 0.89 0.85 0.80 0.75 0.72 0.70 0.68 0.65 0.62 0.59 0.60 0.63 0.67 0.69 0.69 0.70 0.65 0.58 0.57 0.52 0.52 0.51 0.51 0.47 0.42 0.38 0.38
0.70 0.74 0.74 0.72 0.80 0.84 0.84 0.84 0.89 0.97 1.06 1.14 1.15 1.14 1.16 1.19 1.27 1.26 1.13 1.12 1.13 1.13 1.12 1.11 1.10 1.12 1.12 1.12 1.14 1.19 1.18 1.12 1.07 1.09 1.14 1.18 1.19 1.20 1.20 1.18 1.15 1.11 1.09 1.08 1.07 1.06 1.06 1.05 1.06 1.06 1.07 1.04 1.01 0.97 0.94 0.91 0.90 0.88 0.86 0.82 0.77 0.73 0.70 0.67 0.66 0.63 0.62 0.61 0.62 0.63 0.70 0.72 0.70 0.70 0.66 0.61 0.56 0.52 0.51 0.51 0.52 0.46 0.43 0.41 0.43
0.69 0.71 0.76 0.78 0.82 0.92 0.92 0.87 0.86 0.92 1.00 1.09 1.13 1.10 1.11 1.17 1.25 1.31 1.26 1.13 1.10 1.09 1.10 1.10 1.09 1.09 1.09 1.10 1.12 1.15 1.17 1.12 1.06 1.07 1.12 1.16 1.17 1.20 1.21 1.19 1.15 1.12 1.10 1.09 1.08 1.06 1.06 1.07 1.09 1.09 1.08 1.05 1.02 1.00 0.95 0.92 0.89 0.87 0.83 0.79 0.76 0.72 0.67 0.65 0.64 0.64 0.65 0.65 0.65 0.69 0.76 0.78 0.74 0.71 0.64 0.62 0.58 0.57 0.56 0.55 0.52 0.49 0.46 0.45 0.43
0.71 0.71 0.72 0.79 0.86 0.94 1.03 1.05 1.04 0.99 1.00 1.09 1.10 1.11 1.13 1.14 1.18 1.23 1.27 1.29 1.19 1.16 1.13 1.14 1.11 1.07 1.06 1.07 1.09 1.12 1.17 1.14 1.07 1.07 1.11 1.15 1.17 1.20 1.20 1.16 1.12 1.10 1.09 1.08 1.07 1.07 1.07 1.08 1.09 1.10 1.09 1.06 1.03 1.02 1.00 0.95 0.90 0.84 0.80 0.77 0.74 0.72 0.68 0.68 0.67 0.67 0.68 0.68 0.70 0.74 0.78 0.79 0.76 0.69 0.64 0.62 0.60 0.59 0.58 0.57 0.53 0.48 0.41 0.36 0.33
0.75 0.78 0.77 0.78 0.88 0.96 1.01 1.02 1.03 1.13 1.13 1.10 1.05 1.06 1.11 1.13 1.17 1.23 1.22 1.23 1.23 1.17 1.13 1.12 1.13 1.11 1.07 1.05 1.05 1.08 1.14 1.13 1.08 1.07 1.10 1.15 1.18 1.19 1.18 1.15 1.11 1.08 1.07 1.08 1.07 1.06 1.06 1.06 1.08 1.10 1.09 1.06 1.06 1.04 1.02 0.97 0.91 0.84 0.79 0.75 0.73 0.70 0.67 0.67 0.68 0.68 0.70 0.73 0.75 0.76 0.77 0.77 0.75 0.69 0.65 0.64 0.60 0.59 0.56 0.51 0.45 0.40 0.33 0.31 0.33
0.73 0.73 0.80 0.78 0.79 0.94 1.08 1.14 1.09 1.02 1.09 1.12 1.14 1.09 1.10 1.14 1.13 1.22 1.19 1.17 1.19 1.18 1.17 1.15 1.15 1.16 1.09 1.04 1.03 1.02 1.08 1.10 1.08 1.07 1.09 1.13 1.16 1.16 1.15 1.11 1.07 1.05 1.06 1.08 1.07 1.06 1.06 1.06 1.08 1.09 1.09 1.09 1.07 1.06 1.04 0.99 0.91 0.85 0.79 0.73 0.70 0.67 0.66 0.67 0.67 0.67 0.72 0.77 0.77 0.75 0.76 0.76 0.74 0.69 0.67 0.64 0.61 0.58 0.53 0.43 0.40 0.36 0.31 0.32 0.30
0.76 0.70 0.75 0.84 0.80 0.80 0.94 1.07 1.15 1.12 1.14 1.10 1.17 1.20 1.23 1.16 1.16 1.18 1.18 1.23 1.22 1.21 1.20 1.16 1.14 1.16 1.15 1.07 1.03 1.02 1.06 1.09 1.09 1.09 1.09 1.13 1.17 1.19 1.15 1.11 1.06 1.04 1.03 1.02 1.04 1.05 1.06 1.06 1.07 1.08 1.10 1.12 1.10 1.08 1.07 1.03 0.95 0.87 0.81 0.74 0.68 0.65 0.65 0.67 0.65 0.65 0.68 0.68 0.69 0.73 0.74 0.74 0.72 0.68 0.66 0.63 0.59 0.56 0.51 0.44 0.40 0.33 0.30 0.31 0.32
0.72 0.72 0.76 0.81 0.86 0.85 0.81 0.90 0.99 1.06 1.08 1.09 1.04 1.10 1.25 1.25 1.17 1.16 1.14 1.17 1.22 1.28 1.26 1.23 1.18 1.17 1.19 1.13 1.07 1.05 1.06 1.07 1.07 1.10 1.10 1.13 1.18 1.18 1.15 1.09 1.02 1.00 1.01 0.99 0.97 1.00 1.02 1.04 1.04 1.05 1.09 1.13 1.12 1.10 1.09 1.07 0.99 0.91 0.84 0.74 0.68 0.66 0.69 0.67 0.64 0.62 0.62 0.62 0.65 0.69 0.69 0.70 0.69 0.66 0.63 0.59 0.55 0.53 0.50 0.45 0.39 0.34 0.31 0.30 0.30
0.75 0.77 0.79 0.84 0.87 0.91 0.99 0.99 0.98 1.05 1.07 1.11 1.10 1.15 1.30 1.31 1.20 1.12 1.12 1.14 1.16 1.24 1.32 1.31 1.22 1.21 1.24 1.22 1.11 1.07 1.07 1.04 1.05 1.10 1.11 1.13 1.17 1.18 1.12 1.08 1.05 1.03 1.00 0.97 0.96 0.96 0.98 1.01 1.03 1.05 1.09 1.13 1.14 1.15 1.13 1.10 1.04 0.96 0.87 0.78 0.74 0.71 0.67 0.63 0.64 0.64 0.61 0.62 0.65 0.70 0.70 0.68 0.65 0.62 0.59 0.56 0.53 0.51 0.49 0.44 0.39 0.36 0.33 0.30 0.29
0.80 0.79 0.80 0.84 0.91 0.95 0.95 1.01 1.06 1.03 1.06 1.21 1.22 1.13 1.16 1.21 1.32 1.27 1.16 1.17 1.18 1.21 1.27 1.32 1.28 1.22 1.25 1.25 1.17 1.08 1.07 1.05 1.04 1.09 1.12 1.13 1.15 1.15 1.12 1.09 1.08 1.05 1.01 0.97 0.96 0.95 0.97 1.03 1.04 1.05 1.11 1.15 1.14 1.12 1.13 1.13 1.07 0.99 0.92 0.84 0.75 0.67 0.64 0.62 0.63 0.62 0.60 0.60 0.64 0.68 0.68 0.65 0.59 0.56 0.54 0.52 0.51 0.50 0.46 0.42 0.38 0.36 0.35 0.33 0.31
0.81 0.80 0.82 0.88 0.98 1.03 1.01 0.99 0.95 0.95 1.04 1.10 1.09 1.17 1.13 1.14 1.10 1.25 1.30 1.20 1.10 1.01 0.99 1.07 1.23 1.27 1.22 1.21 1.19 1.12 1.08 1.05 1.03 1.07 1.10 1.12 1.13 1.13 1.13 1.12 1.12 1.10 1.02 0.95 0.93 0.95 1.00 1.06 1.08 1.10 1.15 1.18 1.16 1.14 1.15 1.13 1.07 1.00 0.95 0.84 0.73 0.66 0.64 0.62 0.64 0.63 0.59 0.59 0.63 0.66 0.64 0.59 0.53 0.50 0.48 0.47 0.47 0.46 0.43 0.39 0.37 0.36 0.39 0.41 0.41
0.83 0.86 0.96 1.04 1.05 1.06 1.06 1.03 1.01 1.03 1.03 1.06 1.12 1.07 1.13 1.16 1.22 1.33 1.32 1.26 1.15 1.06 1.07 1.03 1.04 1.20 1.27 1.22 1.20 1.14 1.11 1.05 1.02 1.05 1.08 1.09 1.10 1.13 1.15 1.15 1.13 1.10 1.07 1.02 1.01 1.01 1.01 1.07 1.10 1.14 1.20 1.21 1.19 1.15 1.12 1.09 1.05 1.02 0.94 0.83 0.72 0.67 0.66 0.65 0.66 0.63 0.59 0.60 0.66 0.68 0.66 0.60 0.52 0.47 0.46 0.45 0.44 0.43 0.40 0.39 0.41 0.47 0.49 0.48 0.47
0.86 0.87 0.87 0.90 0.93 0.95 0.91 0.90 0.94 1.01 1.07 1.11 1.12 1.13 1.14 1.12 1.09 1.14 1.27 1.27 1.22 1.19 1.16 1.10 1.06 1.03 1.19 1.27 1.23 1.18 1.11 1.06 1.00 1.02 1.07 1.08 1.09 1.12 1.16 1.16 1.14 1.14 1.10 1.08 1.05 1.03 1.06 1.13 1.17 1.19 1.20 1.21 1.19 1.15 1.10 1.06 1.03 1.01 0.95 0.86 0.77 0.72 0.69 0.69 0.68 0.66 0.64 0.67 0.71 0.70 0.65 0.59 0.51 0.46 0.44 0.44 0.45 0.50 0.54 0.54 0.54 0.54 0.53 0.51 0.51
0.82 0.86 0.90 0.89 0.86 0.83 0.79 0.82 0.88 0.96 1.05 1.10 1.12 1.10 1.13 1.15 1.17 1.16 1.20 1.22 1.20 1.23 1.17 1.14 1.06 1.05 1.11 1.24 1.29 1.22 1.14 1.06 0.99 1.00 1.04 1.07 1.10 1.13 1.17 1.18 1.16 1.14 1.15 1.12 1.09 1.07 1.08 1.14 1.19 1.20 1.19 1.18 1.15 1.10 1.05 1.03 1.03 1.01 0.95 0.87 0.80 0.74 0.72 0.72 0.71 0.69 0.68 0.72 0.75 0.73 0.66 0.58 0.53 0.50 0.51 0.54 0.56 0.56 0.56 0.53 0.53 0.52 0.54 0.53 0.52
0.83 0.83 0.82 0.81 0.83 0.84 0.84 0.84 0.85 0.88 0.97 1.07 1.10 1.12 1.09 1.01 0.98 0.99 1.04 1.09 1.21 1.23 1.29 1.21 1.16 1.13 1.18 1.29 1.31 1.29 1.17 1.08 1.01 0.97 0.99 1.03 1.06 1.11 1.15 1.16 1.18 1.18 1.15 1.12 1.08 1.05 1.06 1.13 1.17 1.19 1.20 1.18 1.16 1.12 1.06 1.03 0.99 0.97 0.95 0.89 0.82 0.77 0.75 0.76 0.74 0.73 0.74 0.77 0.79 0.75 0.68 0.61 0.58 0.58 0.57 0.59 0.59 0.59 0.60 0.58 0.56 0.55 0.55 0.54 0.51
0.90 0.86 0.83 0.83 0.85 0.89 0.89 0.89 0.87 0.86 0.91 0.98 1.05 1.03 1.11 1.11 0.99 0.90 0.94 1.03 1.09 1.09 1.17 1.27 1.25 1.20 1.26 1.30 1.27 1.23 1.16 1.09 1.02 0.93 0.93 0.97 1.02 1.07 1.09 1.10 1.11 1.12 1.09 1.06 1.04 1.02 1.05 1.12 1.15 1.16 1.14 1.11 1.09 1.06 1.01 0.98 0.96 0.95 0.96 0.90 0.85 0.84 0.81 0.78 0.75 0.75 0.79 0.81 0.79 0.75 0.68 0.64 0.61 0.60 0.60 0.62 0.61 0.61 0.62 0.60 0.56 0.54 0.53 0.51 0.48
0.92 0.93 0.94 0.90 0.85 0.88 0.91 0.91 0.92 0.92 0.94 0.99 0.99 1.04 1.16 1.15 1.05 0.98 1.05 1.15 1.14 1.06 1.08 1.21 1.33 1.31 1.28 1.36 1.26 1.20 1.08 1.05 0.96 0.94 0.92 0.95 0.97 0.99 1.01 1.04 1.08 1.11 1.09 1.06 1.04 1.02 1.05 1.08 1.09 1.07 1.06 1.04 1.03 1.01 0.99 0.95 0.93 0.94 0.95 0.91 0.87 0.85 0.82 0.76 0.73 0.78 0.82 0.82 0.80 0.73 0.65 0.62 0.59 0.58 0.58 0.58 0.58 0.58 0.61 0.58 0.56 0.50 0.50 0.48 0.44
0.92 0.93 0.93 0.89 0.89 0.93 0.94 0.94 0.97 1.00 1.02 0.99 0.98 1.06 1.15 1.19 1.20 1.11 1.08 1.22 1.23 1.22 1.22 1.18 1.29 1.39 1.31 1.36 1.39 1.21 1.10 1.06 1.05 1.01 0.99 1.01 1.05 1.07 1.09 1.12 1.15 1.13 1.09 1.09 1.08 1.02 1.02 1.04 1.04 1.03 1.03 1.02 1.00 0.99 0.96 0.94 0.91 0.92 0.89 0.89 0.86 0.84 0.79 0.75 0.75 0.76 0.81 0.81 0.77 0.69 0.62 0.59 0.58 0.58 0.58 0.58 0.58 0.58 0.59 0.54 0.50 0.46 0.43 0.43 0.42
0.90 0.89 0.88 0.88 0.91 0.95 0.99 1.02 1.04 1.06 1.06 1.04 1.00 0.97 1.03 1.10 1.16 1.18 1.18 1.16 1.10 1.11 1.22 1.28 1.35 1.40 1.45 1.42 1.42 1.33 1.28 1.19 1.07 1.03 1.03 1.06 1.10 1.15 1.19 1.21 1.19 1.13 1.10 1.07 1.03 1.00 1.00 1.01 1.01 1.02 1.02 1.03 1.01 0.98 0.95 0.92 0.93 0.92 0.90 0.91 0.89 0.85 0.79 0.75 0.76 0.77 0.76 0.75 0.71 0.65 0.60 0.60 0.59 0.59 0.58 0.57 0.56 0.57 0.57 0.55 0.50 0.47 0.44 0.44 0.44
0.84 0.85 0.87 0.89 0.94 0.98 1.04 1.06 1.10 1.11 1.10 1.09 1.06 1.03 1.01 1.03 1.05 1.16 1.23 1.21 1.13 1.03 1.09 1.15 1.24 1.25 1.34 1.39 1.34 1.29 1.29 1.25 1.13 1.08 1.08 1.11 1.15 1.18 1.21 1.21 1.16 1.11 1.09 1.09 1.02 1.00 1.04 1.03 1.01 1.01 1.01 1.00 1.00 0.98 0.94 0.92 0.95 0.98 0.93 0.91 0.88 0.85 0.80 0.78 0.80 0.78 0.75 0.71 0.66 0.64 0.65 0.65 0.64 0.62 0.60 0.57 0.54 0.53 0.54 0.53 0.50 0.46 0.44 0.45 0.44
0.83 0.85 0.86 0.88 0.93 0.98 1.02 1.05 1.08 1.11 1.11 1.10 1.06 1.04 1.02 1.01 1.00 1.04 1.16 1.18 1.11 1.12 1.17 1.22 1.21 1.27 1.32 1.30 1.28 1.27 1.19 1.14 1.13 1.12 1.13 1.16 1.16 1.14 1.16 1.16 1.12 1.10 1.10 1.04 1.01 1.01 1.03 1.03 1.03 1.02 1.01 1.00 1.00 0.97 0.93 0.95 0.97 0.98 0.98 0.95 0.88 0.85 0.84 0.84 0.82 0.79 0.75 0.70 0.64 0.64 0.67 0.67 0.67 0.65 0.61 0.57 0.55 0.52 0.53 0.51 0.49 0.46 0.44 0.43 0.44
0.89 0.90 0.90 0.90 0.92 0.96 1.00 1.03 1.06 1.08 1.10 1.09 1.08 1.07 1.05 1.04 1.01 1.03 1.04 1.05 1.12 1.22 1.26 1.31 1.31 1.32 1.35 1.36 1.32 1.30 1.26 1.18 1.16 1.16 1.14 1.16 1.15 1.13 1.08 1.06 1.09 1.11 1.07 1.00 1.00 1.01 1.04 1.03 1.02 1.00 1.00 1.02 1.02 0.98 0.96 0.97 0.99 0.98 0.97 0.97 0.91 0.86 0.86 0.84 0.81 0.79 0.75 0.68 0.63 0.64 0.68 0.69 0.70 0.67 0.63 0.59 0.56 0.55 0.53 0.50 0.47 0.43 0.41 0.40 0.41
0.91 0.94 0.96 0.96 0.95 0.96 0.99 1.01 1.04 1.05 1.04 1.06 1.07 1.08 1.09 1.08 1.07 1.03 1.01 1.00 1.05 1.09 1.12 1.21 1.29 1.35 1.36 1.37 1.37 1.31 1.29 1.25 1.19 1.18 1.14 1.12 1.11 1.11 1.10 1.06 1.02 0.99 1.01 1.03 1.02 1.04 1.04 1.02 1.00 1.01 1.03 1.02 1.01 0.99 0.99 1.04 1.03 1.01 1.00 0.98 0.93 0.87 0.84 0.80 0.79 0.78 0.73 0.69 0.66 0.66 0.67 0.69 0.71 0.70 0.66 0.61 0.57 0.56 0.53 0.50 0.46 0.42 0.40 0.40 0.40
0.92 0.95 0.97 0.97 0.98 0.98 0.98 1.01 1.05 1.04 1.03 1.03 1.13 1.15 1.15 1.13 1.09 1.09 1.09 1.06 1.06 1.10 1.18 1.25 1.28 1.32 1.37 1.41 1.36 1.35 1.29 1.19 1.15 1.15 1.12 1.11 1.11 1.12 1.03 0.98 0.96 0.93 0.91 0.93 0.96 1.02 1.04 1.03 1.03 1.03 1.04 1.04 1.03 1.01 1.00 1.06 1.07 1.06 1.05 1.02 0.95 0.88 0.83 0.80 0.78 0.74 0.71 0.69 0.71 0.71 0.69 0.69 0.70 0.69 0.67 0.64 0.60 0.57 0.54 0.50 0.45 0.41 0.39 0.40 0.41
0.99 0.99 1.00 0.99 1.00 1.01 1.01 1.03 1.05 1.07 1.08 1.06 1.06 1.12 1.14 1.11 1.10 1.09 1.08 1.07 1.09 1.12 1.16 1.22 1.27 1.31 1.35 1.39 1.40 1.31 1.28 1.21 1.22 1.16 1.16 1.15 1.17 1.13 1.06 1.00 0.94 0.93 0.93 0.96 0.98 0.98 0.97 0.99 1.02 1.03 1.04 1.03 1.02 1.01 1.04 1.05 1.11 1.09 1.08 1.05 0.97 0.89 0.83 0.81 0.78 0.74 0.71 0.69 0.71 0.72 0.71 0.71 0.71 0.71 0.68 0.66 0.64 0.61 0.56 0.52 0.46 0.41 0.38 0.39 0.39
1.06 1.06 1.06 1.01 1.01 1.01 0.99 1.00 1.02 1.04 1.06 1.05 1.05 1.09 1.15 1.13 1.09 1.07 1.05 1.06 1.08 1.10 1.11 1.18 1.24 1.27 1.24 1.29 1.33 1.31 1.25 1.24 1.19 1.29 1.31 1.22 1.21 1.17 1.10 1.03 1.00 0.96 0.95 0.97 0.97 0.97 0.99 1.02 1.04 1.03 1.02 1.00 0.98 0.99 1.02 1.06 1.12 1.10 1.04 1.03 0.97 0.90 0.85 0.82 0.80 0.78 0.75 0.73 0.73 0.75 0.76 0.77 0.78 0.76 0.72 0.68 0.66 0.63 0.58 0.52 0.45 0.40 0.39 0.38 0.38
1.00 0.98 0.99 0.98 1.01 1.01 1.01 0.99 0.99 1.00 1.03 1.06 1.09 1.12 1.14 1.13 1.11 1.05 1.05 1.05 1.05 1.07 1.12 1.17 1.22 1.21 1.25 1.28 1.31 1.31 1.29 1.23 1.15 1.10 1.16 1.20 1.19 1.13 1.09 1.06 1.03 1.02 1.03 1.01 1.01 1.02 1.05 1.07 1.08 1.06 1.03 1.01 1.00 1.00 1.03 1.05 1.07 1.06 1.05 1.03 0.97 0.91 0.85 0.82 0.81 0.80 0.80 0.80 0.80 0.80 0.80 0.80 0.79 0.74 0.70 0.68 0.66 0.65 0.59 0.52 0.45 0.41 0.39 0.38 0.38
0.98 0.96 0.95 0.94 0.95 0.95 0.96 0.96 0.97 0.97 0.99 1.01 1.04 1.09 1.09 1.09 1.08 1.05 1.03 1.03 1.02 1.03 1.08 1.15 1.23 1.24 1.26 1.27 1.27 1.25 1.17 1.13 1.11 1.11 1.04 1.02 1.04 1.07 1.08 1.06 1.05 1.05 1.04 1.04 1.05 1.08 1.10 1.09 1.08 1.05 1.03 1.02 1.02 1.01 1.03 1.05 1.06 1.07 1.04 1.01 0.97 0.92 0.90 0.88 0.87 0.87 0.86 0.85 0.82 0.81 0.80 0.78 0.75 0.72 0.70 0.67 0.64 0.62 0.57 0.49 0.43 0.41 0.39 0.39 0.41
1.01 0.99 0.97 0.95 0.94 0.94 0.95 0.96 0.95 0.96 0.97 0.99 1.00 1.04 1.07 1.09 1.09 1.09 1.05 1.01 0.97 0.98 1.08 1.16 1.20 1.26 1.27 1.28 1.29 1.26 1.24 1.20 1.18 1.24 1.24 1.17 1.12 1.11 1.12 1.12 1.12 1.11 1.12 1.12 1.13 1.14 1.11 1.07 1.06 1.06 1.04 1.04 1.05 1.03 1.03 1.05 1.07 1.07 1.02 1.02 0.98 0.94 0.95 0.94 0.94 0.93 0.90 0.86 0.83 0.80 0.78 0.78 0.76 0.72 0.69 0.68 0.66 0.59 0.51 0.47 0.45 0.44 0.43 0.44 0.44
0.98 0.97 0.97 0.96 0.96 0.94 0.93 0.93 0.95 0.96 0.97 0.98 0.98 0.99 1.04 1.07 1.08 1.09 1.06 1.05 1.00 1.00 1.04 1.12 1.20 1.26 1.28 1.29 1.28 1.26 1.22 1.27 1.32 1.32 1.26 1.22 1.21 1.19 1.21 1.21 1.23 1.21 1.20 1.19 1.17 1.13 1.11 1.11 1.11 1.10 1.07 1.04 1.03 1.05 1.09 1.10 1.12 1.07 1.02 1.01 0.98 0.97 0.96 0.97 0.96 0.92 0.88 0.85 0.82 0.80 0.80 0.80 0.78 0.74 0.71 0.68 0.65 0.60 0.54 0.49 0.47 0.46 0.46 0.45 0.45
0.97 0.97 0.97 0.97 0.96 0.96 0.95 0.95 0.96 0.95 0.95 0.96 0.97 0.99 1.01 1.04 1.06 1.06 1.06 1.07 1.11 1.10 1.03 1.04 1.10 1.16 1.19 1.21 1.24 1.26 1.25 1.24 1.24 1.24 1.24 1.23 1.26 1.25 1.24 1.22 1.22 1.23 1.22 1.22 1.20 1.17 1.15 1.14 1.13 1.10 1.05 1.03 1.04 1.04 1.06 1.07 1.08 1.04 1.02 1.02 1.01 1.00 0.98 0.96 0.92 0.89 0.86 0.84 0.81 0.80 0.80 0.79 0.76 0.73 0.70 0.66 0.63 0.60 0.57 0.52 0.48 0.47 0.46 0.46 0.45
0.97 0.97 0.97 0.96 0.96 0.97 0.98 0.98 0.96 0.96 0.94 0.95 0.97 0.98 0.99 1.00 1.01 1.03 1.03 1.04 1.05 1.09 1.08 1.05 1.09 1.13 1.16 1.18 1.15 1.14 1.17 1.21 1.23 1.22 1.20 1.20 1.22 1.22 1.21 1.22 1.21 1.20 1.19 1.18 1.17 1.16 1.14 1.12 1.10 1.08 1.05 1.04 1.04 1.04 1.04 1.06 1.07 1.06 1.04 1.03 1.02 1.01 0.98 0.94 0.90 0.87 0.84 0.81 0.80 0.79 0.78 0.76 0.74 0.71 0.67 0.65 0.62 0.59 0.56 0.53 0.51 0.48 0.46 0.45 0.45
0.95 0.96 0.96 0.96 0.96 0.95 0.95 0.97 0.97 0.97 0.97 0.95 0.94 0.95 0.96 0.96 0.96 0.98 0.99 1.00 1.02 1.04 1.06 1.06 1.06 1.08 1.12 1.15 1.17 1.17 1.16 1.15 1.16 1.16 1.14 1.15 1.16 1.16 1.16 1.17 1.19 1.20 1.19 1.17 1.16 1.14 1.11 1.09 1.08 1.07 1.07 1.09 1.09 1.06 1.07 1.08 1.10 1.10 1.08 1.05 1.03 0.99 0.97 0.95 0.92 0.88 0.83 0.79 0.77 0.76 0.75 0.73 0.71 0.69 0.66 0.64 0.63 0.59 0.56 0.54 0.51 0.47 0.45 0.45 0.44
0.93 0.94 0.94 0.94 0.94 0.95 0.94 0.94 0.94 0.95 0.96 0.95 0.94 0.92 0.92 0.93 0.93 0.93 0.94 0.96 0.98 0.98 0.99 1.01 1.02 1.03 1.04 1.07 1.10 1.12 1.15 1.15 1.12 1.12 1.13 1.14 1.15 1.15 1.16 1.15 1.14 1.14 1.13 1.13 1.12 1.11 1.10 1.09 1.07 1.07 1.06 1.06 1.07 1.05 1.05 1.08 1.09 1.10 1.08 1.08 1.06 1.04 1.01 0.99 0.95 0.89 0.83 0.79 0.77 0.75 0.72 0.71 0.70 0.68 0.66 0.64 0.62 0.60 0.57 0.55 0.50 0.47 0.46 0.45 0.45
0.92 0.93 0.93 0.93 0.92 0.93 0.95 0.94 0.92 0.90 0.91 0.93 0.94 0.93 0.92 0.91 0.91 0.91 0.91 0.92 0.94 0.96 0.96 0.96 0.96 0.97 0.99 1.02 1.03 1.04 1.06 1.08 1.08 1.07 1.06 1.06 1.08 1.10 1.11 1.11 1.10 1.09 1.09 1.09 1.09 1.09 1.08 1.06 1.06 1.05 1.04 1.03 1.05 1.05 1.07 1.10 1.11 1.11 1.11 1.11 1.09 1.07 1.03 1.01 0.98 0.92 0.86 0.84 0.82 0.77 0.72 0.69 0.67 0.66 0.65 0.64 0.62 0.60 0.57 0.52 0.48 0.48 0.48 0.47 0.46
0.89 0.90 0.91 0.91 0.91 0.90 0.91 0.92 0.91 0.90 0.89 0.89 0.90 0.91 0.92 0.92 0.90 0.89 0.89 0.89 0.89 0.91 0.92 0.94 0.94 0.95 0.95 0.97 1.00 1.02 1.03 1.04 1.03 1.02 1.02 1.01 1.01 1.03 1.04 1.04 1.05 1.05 1.05 1.06 1.06 1.05 1.05 1.07 1.06 1.09 1.07 1.04 1.04 1.07 1.09 1.11 1.12 1.12 1.11 1.10 1.07 1.04 1.01 0.99 0.97 0.95 0.91 0.88 0.84 0.80 0.74 0.69 0.66 0.63 0.62 0.61 0.60 0.58 0.55 0.51 0.49 0.48 0.48 0.48 0.47
0.86 0.87 0.87 0.88 0.89 0.89 0.89 0.90 0.90 0.89 0.89 0.89 0.87 0.87 0.89 0.91 0.91 0.90 0.90 0.89 0.89 0.89 0.89 0.90 0.92 0.93 0.94 0.94 0.95 0.95 0.94 0.95 0.96 0.99 1.01 1.01 1.02 1.02 1.02 1.02 1.03 1.04 1.03 1.03 1.04 1.05 1.05 1.07 1.09 1.09 1.08 1.06 1.03 1.04 1.07 1.10 1.11 1.11 1.11 1.10 1.09 1.06 1.03 1.01 0.99 0.96 0.94 0.89 0.85 0.80 0.74 0.69 0.65 0.62 0.60 0.60 0.59 0.57 0.54 0.52 0.50 0.49 0.48 0.47 0.45
0.82 0.84 0.84 0.85 0.85 0.86 0.87 0.88 0.88 0.88 0.88 0.89 0.88 0.86 0.87 0.88 0.89 0.90 0.90 0.90 0.90 0.90 0.90 0.90 0.91 0.92 0.93 0.93 0.93 0.93 0.93 0.93 0.93 0.93 0.95 0.97 0.98 1.00 1.01 1.02 1.02 1.03 1.03 1.05 1.07 1.08 1.09 1.09 1.07 1.07 1.07 1.06 1.05 1.06 1.07 1.09 1.10 1.10 1.09 1.09 1.08 1.07 1.03 1.00 0.98 0.96 0.92 0.87 0.80 0.74 0.70 0.68 0.65 0.62 0.59 0.57 0.54 0.53 0.52 0.52 0.51 0.50 0.47 0.44 0.42
0.75 0.78 0.80 0.80 0.82 0.83 0.84 0.84 0.85 0.85 0.85 0.85 0.85 0.85 0.85 0.85 0.87 0.88 0.89 0.89 0.89 0.90 0.91 0.91 0.91 0.92 0.93 0.94 0.94 0.94 0.94 0.95 0.96 0.96 0.97 0.98 0.99 0.99 1.00 1.00 1.02 1.03 1.05 1.05 1.06 1.07 1.07 1.08 1.09 1.09 1.08 1.07 1.07 1.08 1.08 1.08 1.08 1.08 1.08 1.05 1.04 0.98 0.93 0.88 0.85 0.81 0.77 0.74 0.72 0.72 0.70 0.67 0.62 0.57 0.55 0.53 0.51 0.50 0.49 0.49 0.48 0.46 0.43 0.40 0.38
Wind_Speed
45 44 44 44 43 43 42 42 42 43 43 43 42 41 41 41 40 39 36 34 34 33 32 30 29 29 28 27 27 26 25 24 23 22 21 20 20 19 18 18 18 18 18 18 18 17 17 17 17 17 17 17 17 17 17 17 18 17 17 17 17 17 17 17 17 18 18 18 17 17 17 17 17 17 18 19 21 22 23 24 23 23 23 23 23
47 45 44 44 44 43 43 43 43 43 44 44 43 42 41 41 41 41 39 38 36 35 34 32 31 30 29 29 28 27 26 25 24 23 22 21 21 20 19 19 19 18 18 18 18 18 17 17 18 17 17 17 16 16 17 17 17 18 17 17 17 17 17 18 18 18 18 18 17 17 17 17 18 18 19 20 21 22 23 23 23 22 23 22 22
47 46 45 44 44 44 43 43 44 44 44 44 44 43 42 41 40 40 40 39 37 36 35 34 33 32 30 30 30 29 28 27 25 24 23 23 22 21 21 20 19 19 19 19 19 18 18 18 18 18 17 17 16 16 16 17 17 17 18 18 18 18 18 18 18 18 17 17 17 17 17 18 19 19 20 21 22 22 23 23 23 22 22 22 22
46 46 46 45 44 44 44 44 44 44 44 44 44 44 43 41 40 39 39 39 38 37 36 36 35 33 32 31 31 31 30 28 27 26 25 24 23 23 22 21 20 20 20 19 19 19 19 19 18 18 17 17 17 17 17 17 17 17 18 18 18 18 18 18 19 18 17 17 17 17 17 18 20 20 20 21 22 22 22 23 23 23 22 22 22
45 46 47 46 45 45 45 44 45 45 45 45 44 44 44 42 41 40 40 40 39 38 37 37 37 35 34 33 32 32 31 30 28 27 26 25 24 24 23 22 21 21 20 20 20 20 20 19 19 18 17 17 17 17 17 17 18 18 18 18 18 19 18 18 18 18 17 17 17 18 18 19 20 20 21 21 22 21 22 23 23 22 22 22 22
43 45 47 47 46 45 45 46 46 45 45 45 44 44 43 43 42 42 41 41 40 39 39 39 38 37 36 35 34 33 32 31 30 29 27 26 25 24 24 24 22 21 21 21 20 20 20 20 19 18 18 18 18 17 17 18 18 18 19 19 19 19 18 18 17 17 18 18 18 18 18 19 19 20 21 21 21 21 21 22 23 22 22 22 22
40 44 46 46 47 47 46 46 46 46 45 45 45 44 43 43 43 43 42 42 41 40 40 39 39 38 37 36 35 34 33 32 31 30 29 27 26 25 25 24 23 22 22 21 21 21 21 20 20 19 19 19 19 19 18 19 19 19 19 19 19 18 17 17 17 17 17 18 18 18 18 19 19 20 20 21 21 21 21 22 22 23 22 22 22
40 42 44 46 47 48 48 47 47 46 46 46 46 46 45 45 44 44 43 43 42 41 41 40 40 39 38 37 36 34 34 33 32 31 30 29 27 26 26 25 24 23 23 22 22 21 21 21 20 20 20 19 19 19 19 19 19 19 19 19 18 17 17 17 17 17 17 17 18 18 18 18 19 19 19 20 20 20 21 22 22 22 22 22 22
41 42 44 45 48 49 49 48 48 47 47 46 47 47 47 46 45 45 45 44 43 43 42 41 41 40 39 38 37 35 34 34 33 32 30 29 28 27 27 26 25 24 23 23 22 22 21 21 21 21 20 20 20 20 20 19 19 19 19 18 18 18 17 17 17 17 17 18 18 18 18 18 18 19 19 20 20 20 21 22 22 22 22 22 23
42 43 44 45 46 47 48 48 48 48 48 48 48 47 47 47 46 45 44 44 44 43 43 42 41 40 39 39 38 36 35 34 34 33 32 30 29 28 27 27 26 25 24 23 23 23 22 22 21 21 21 20 20 20 20 19 19 19 19 19 19 18 18 18 18 18 18 18 19 18 18 18 18 18 19 21 21 21 21 21 21 21 22 22 23
43 44 45 46 45 46 47 48 48 48 48 48 48 47 47 48 47 46 44 44 44 43 43 43 42 41 40 40 40 38 36 35 35 34 33 32 31 29 28 27 27 26 25 25 24 23 23 22 22 22 22 21 21 20 20 20 20 20 20 20 19 19 19 19 19 19 19 19 19 19 19 19 19 19 20 21 20 20 21 21 21 21 21 22 22
43 45 46 47 47 47 48 49 49 48 48 48 48 48 47 47 48 47 45 44 44 44 43 43 43 43 41 41 41 40 38 37 36 36 35 34 32 31 29 28 28 27 26 26 25 24 23 23 22 22 22 22 21 21 20 20 20 20 20 20 20 20 20 20 20 20 20 20 20 20 19 19 19 20 20 20 20 20 21 20 20 20 21 21 22
42 44 46 47 49 49 50 51 51 50 49 50 49 49 49 48 49 49 47 45 45 44 44 44 43 43 43 42 42 42 40 38 38 37 36 35 34 32 30 29 29 28 27 27 26 25 24 23 23 22 23 22 22 21 21 21 21 20 20 20 20 20 20 20 21 21 20 20 20 20 20 20 20 20 20 20 19 20 20 20 20 20 21 21 22
41 43 44 45 47 49 51 52 53 52 51 51 50 50 50 50 50 50 49 47 46 46 45 45 44 44 44 43 42 42 41 40 38 38 37 36 35 34 31 31 30 29 28 27 27 26 25 24 23 23 23 23 23 22 22 21 21 21 20 20 20 20 20 20 21 21 21 20 20 21 20 20 20 21 20 20 20 20 20 20 20 20 20 21 22
40 42 44 44 44 46 49 50 52 53 52 52 51 51 51 51 51 50 49 48 48 47 46 46 45 44 44 44 43 43 42 41 39 39 38 37 36 35 32 31 31 30 29 28 27 27 26 25 25 24 23 24 24 23 22 22 22 21 21 20 21 21 20 21 21 21 21 21 21 20 20 20 20 20 20 20 20 20 20 20 20 20 21 22 22
39 40 42 44 44 44 45 47 50 52 52 52 52 52 51 52 51 51 50 50 49 48 48 47 46 45 45 44 44 43 43 42 40 39 38 37 36 35 33 32 32 31 29 29 28 28 27 26 26 25 24 24 24 24 23 23 22 22 22 21 21 21 21 21 21 21 21 21 20 20 20 20 20 20 20 19 19 20 20 20 20 20 21 21 22
39 39 40 43 44 43 44 46 48 50 51 52 53 53 52 52 52 52 51 51 50 50 49 48 47 47 46 45 45 44 43 42 41 40 39 38 37 36 34 33 32 31 30 29 29 28 27 27 26 26 25 24 24 24 24 24 23 23 22 22 21 21 21 21 21 20 20 20 20 20 20 20 19 19 19 19 19 19 20 20 20 20 20 21 21
39 38 39 41 43 44 44 45 47 48 50 52 52 53 52 52 52 52 52 52 52 51 50 49 48 48 47 47 46 45 44 43 42 41 39 39 38 37 35 34 33 32 30 30 29 28 28 28 27 26 26 25 24 24 25 24 24 24 23 23 22 22 22 22 21 21 20 20 21 21 20 20 20 20 19 19 19 19 20 20 20 20 20 20 21
37 38 38 39 42 44 45 45 46 47 49 51 52 52 53 52 52 52 52 52 52 52 51 50 50 49 48 48 47 46 45 44 43 42 40 40 39 38 36 35 33 32 31 30 29 29 28 28 28 27 26 25 25 25 25 25 25 25 24 24 23 23 23 22 22 22 21 21 22 22 21 21 21 20 20 19 20 20 20 20 20 20 20 20 20
34 35 36 37 39 42 44 45 47 47 49 50 51 51 52 52 52 52 52 52 52 52 52 52 51 50 49 48 48 47 46 44 44 43 41 41 40 39 37 36 34 33 31 30 29 29 28 28 28 28 27 26 25 25 25 25 25 25 25 25 25 24 24 23 23 23 22 22 22 22 22 22 21 21 20 20 20 20 20 20 20 20 20 20 20
33 34 35 36 37 39 41 43 45 46 48 49 50 51 51 51 52 52 52 52 52 52 53 52 52 51 50 49 49 48 47 46 45 44 43 42 42 41 39 37 35 34 32 31 30 29 29 28 28 28 27 26 26 26 26 26 26 26 26 26 26 25 24 24 23 23 23 23 23 23 23 22 21 21 21 21 21 21 20 20 20 19 19 20 20
33 34 35 36 36 36 38 39 41 43 45 47 49 51 51 51 51 52 52 52 52 52 52 52 51 51 50 50 50 49 48 47 46 45 43 43 43 42 40 38 36 35 33 32 31 30 29 29 29 29 28 27 27 26 26 27 27 26 27 26 26 25 24 24 24 24 23 23 23 23 22 22 21 21 21 21 21 21 20 20 20 20 19 19 19
34 34 34 34 35 35 36 37 38 41 44 46 47 49 51 51 51 51 51 52 52 52 52 52 52 51 51 51 51 50 49 48 47 46 44 44 44 43 41 39 37 36 34 33 32 31 30 29 29 29 29 28 27 27 27 27 27 27 27 26 26 25 24 24 24 24 24 23 23 23 22 21 21 22 22 21 21 21 20 20 20 19 19 19 19
33 33 33 33 34 35 36 36 37 38 41 44 46 48 50 51 51 51 51 51 52 52 51 51 52 52 52 52 51 50 49 48 47 46 45 45 44 43 42 40 38 37 35 34 32 31 30 30 30 30 29 28 28 27 26 26 26 26 26 26 26 25 24 24 24 24 24 23 23 22 21 21 21 22 21 21 21 20 19 19 18 18 18 18 19
32 32 32 32 33 34 35 36 37 37 39 42 44 46 48 50 50 50 50 50 51 51 51 51 51 52 53 53 51 49 49 48 47 47 46 45 45 44 42 41 39 38 36 35 33 32 31 31 31 30 30 28 27 27 26 26 26 26 26 26 26 25 24 24 24 23 23 22 22 21 21 21 21 21 21 20 19 19 18 17 17 17 17 18 19
32 32 32 32 33 33 34 35 36 37 38 40 42 44 47 49 49 49 49 49 50 50 50 51 51 51 53 55 53 49 48 48 47 47 46 45 45 45 43 41 40 39 37 35 34 33 32 32 31 31 30 28 27 27 27 26 26 26 26 26 26 25 25 24 24 23 22 21 21 21 21 20 20 20 19 18 18 18 17 17 17 17 17 18 18
31 31 31 31 31 32 33 35 36 37 38 39 41 42 45 47 48 49 50 50 50 49 48 50 51 50 51 54 53 48 47 47 46 46 46 45 44 44 43 41 40 39 38 36 35 34 33 32 32 31 30 29 28 27 26 26 26 26 26 26 26 26 25 24 23 23 22 21 21 21 20 20 20 19 18 18 18 18 17 17 17 17 17 17 18
29 29 30 30 30 31 33 34 36 36 37 39 40 41 42 45 47 47 48 48 49 49 49 50 51 49 49 52 52 48 46 47 47 46 46 45 44 44 43 41 40 39 38 36 34 33 32 32 31 30 29 28 27 27 27 27 27 27 27 26 25 25 24 24 23 22 22 21 21 20 20 20 19 19 19 19 18 18 17 17 17 17 17 17 18
28 28 29 29 30 31 32 33 34 35 36 38 39 40 40 42 44 45 46 46 47 48 48 49 51 51 50 51 51 48 46 46 47 46 46 46 45 44 43 42 40 39 38 37 35 33 32 32 31 30 29 28 28 28 28 29 29 28 27 26 25 24 24 24 23 22 21 21 21 20 20 20 20 19 18 18 18 17 17 16 16 16 17 17 18
27 27 28 29 29 29 30 32 33 34 35 36 38 39 39 40 42 42 43 44 44 45 45 46 47 48 50 52 52 50 47 46 46 45 45 46 46 45 44 43 41 40 38 37 36 34 33 32 30 29 29 29 28 28 28 29 30 29 28 26 26 25 24 24 24 22 21 21 21 21 20 20 20 19 18 18 18 17 17 17 17 17 17 17 18
26 27 27 28 28 28 29 29 30 31 33 34 36 37 37 39 40 42 42 42 42 42 43 44 44 45 47 49 50 49 47 46 46 45 45 45 45 45 45 44 42 40 39 37 36 35 34 32 30 30 30 29 29 29 28 28 28 28 27 27 27 26 25 25 24 23 22 21 21 21 20 20 19 19 18 18 17 17 17 17 17 17 17 17 17
25 26 26 26 27 26 27 28 28 29 30 32 34 35 36 36 38 39 39 40 41 43 43 44 45 45 45 46 47 46 46 46 46 46 46 46 46 45 45 44 42 41 40 38 37 36 35 33 31 31 31 30 30 30 29 28 28 27 27 28 29 28 26 25 24 23 23 22 22 21 20 20 19 18 18 18 17 17 17 17 17 17 17 17 17
24 25 25 25 25 25 25 26 27 28 28 30 31 33 35 35 36 37 37 36 38 40 40 41 44 45 45 47 48 47 46 46 46 46 47 46 46 46 45 44 42 41 40 39 38 36 35 33 33 32 32 31 31 30 29 29 29 28 28 29 29 28 27 26 25 24 23 23 22 21 21 20 19 19 18 17 17 17 17 17 17 17 17 17 17
21 23 24 24 24 24 24 25 26 27 27 28 29 31 33 34 34 35 35 35 35 35 35 36 39 43 45 46 47 47 47 46 46 46 47 46 46 46 45 42 41 41 41 40 39 37 35 34 34 33 33 32 32 31 30 29 30 29 28 29 29 28 27 26 25 24 23 23 22 22 21 21 20 19 19 18 18 18 17 17 17 16 17 17 16
18 20 21 22 23 24 24 24 24 25 26 26 26 28 31 32 33 34 34 35 35 35 34 35 37 40 42 44 46 46 46 46 46 47 47 46 46 46 43 41 40 40 40 40 38 37 36 35 34 33 33 32 32 32 31 30 30 30 29 29 29 28 27 26 26 24 24 23 23 22 22 21 21 20 19 19 19 18 18 17 17 16 16 16 16
17 18 19 21 22 23 23 22 23 23 24 24 24 25 27 29 31 32 33 34 35 35 35 35 36 37 39 42 44 46 45 45 46 47 46 46 45 45 42 40 40 40 40 39 38 37 36 35 34 33 33 32 32 31 30 30 30 29 29 29 28 27 27 26 26 25 25 24 23 22 22 22 22 21 20 19 19 18 18 18 17 17 17 16 16
14 16 17 19 20 21 21 20 20 21 22 22 23 23 24 25 28 30 30 31 32 33 32 32 33 34 35 37 40 43 43 42 43 44 44 45 45 44 42 40 39 39 39 38 37 36 35 34 33 33 32 32 31 30 29 29 30 29 28 28 28 27 26 26 25 25 25 24 23 22 22 22 22 21 20 20 19 19 19 18 18 18 18 17 17
11 12 13 15 17 18 19 19 19 19 19 20 20 21 21 22 24 27 28 28 29 29 28 29 30 32 33 34 35 38 39 38 38 39 40 41 41 40 40 39 39 38 38 37 37 36 35 34 33 33 32 31 31 30 29 29 30 29 27 27 28 27 26 26 25 25 25 24 23 23 22 22 22 21 20 20 20 19 19 18 18 18 18 18 18
11 12 12 13 14 16 17 18 18 18 18 18 18 19 19 20 21 24 25 26 27 26 26 26 27 29 32 33 34 36 37 37 37 38 39 39 39 38 38 38 38 37 37 37 36 35 35 34 34 33 33 32 31 30 29 29 30 29 28 27 28 28 27 27 26 25 25 24 23 23 22 22 22 21 21 20 20 19 19 19 18 18 18 18 18
12 12 13 13 14 14 15 16 17 17 18 18 18 18 18 18 19 21 23 24 24 24 24 25 26 28 30 32 33 34 35 35 36 38 39 38 38 38 37 37 37 37 36 36 36 35 35 34 34 34 33 32 32 31 30 30 31 29 28 28 28 28 27 27 26 25 25 24 24 23 23 23 22 22 21 21 20 19 19 19 19 19 18 17 17
11 11 11 11 12 13 14 14 15 16 17 18 18 19 19 18 18 19 20 21 22 21 21 22 24 27 29 30 31 32 32 32 34 35 36 36 36 37 37 36 36 36 36 35 35 35 34 34 34 34 33 32 32 31 30 31 31 29 28 28 28 28 28 28 27 26 26 25 24 23 23 23 22 22 21 21 20 19 18 18 19 19 18 18 17
10 10 10 10 11 11 11 12 13 14 15 16 17 17 18 18 18 18 18 18 19 18 17 18 21 24 27 29 30 30 31 32 33 33 34 34 35 35 36 35 35 35 35 35 34 34 34 34 34 34 33 32 32 31 30 31 31 30 29 29 29 29 28 28 28 27 26 25 24 23 23 23 23 22 21 20 19 19 18 18 19 19 18 18 18
11 10 10 10 10 10 10 9 10 10 12 13 14 15 15 16 17 18 18 18 18 18 16 15 17 20 23 26 27 27 27 30 33 33 33 33 33 33 34 35 34 34 34 33 33 34 34 33 33 34 33 33 32 31 31 31 31 31 30 29 29 28 29 29 28 27 26 25 24 24 24 23 23 22 21 20 20 19 19 19 19 19 19 19 19
11 10 10 10 10 10 9 8 8 8 9 10 11 12 13 14 16 17 17 18 18 18 16 15 15 17 20 23 25 25 24 26 29 30 30 31 31 31 32 33 33 33 33 33 33 34 34 33 33 33 32 32 31 31 31 31 32 31 29 29 29 28 28 28 28 27 25 24 24 24 24 23 22 21 21 20 20 19 19 19 19 19 19 19 19
10 10 10 9 9 9 9 8 7 7 7 8 8 9 10 12 14 15 17 18 18 19 18 17 16 17 19 21 23 24 24 25 26 27 28 28 28 29 30 31 32 32 33 33 34 34 34 34 34 33 32 31 31 30 30 31 31 30 29 30 30 29 28 28 28 26 25 24 24 24 23 22 21 20 20 20 20 19 19 19 19 19 19 19 19
10 9 9 9 8 7 8 8 7 6 6 6 6 7 8 9 11 13 15 17 18 19 19 20 19 20 20 22 23 23 24 24 25 26 27 28 29 30 31 31 32 33 34 34 34 34 34 34 34 34 32 31 31 30 30 31 31 30 30 30 30 29 28 28 27 26 25 25 24 24 23 22 21 20 20 20 19 19 19 20 20 19 19 19 20
9 8 8 9 8 7 7 7 7 7 6 5 5 5 6 6 8 9 12 14 16 17 18 19 19 20 21 22 23 24 24 25 26 27 28 29 30 31 32 32 33 33 34 34 33 33 33 33 33 33 32 31 30 29 29 30 31 30 29 29 28 28 28 27 27 26 26 25 24 24 23 21 21 20 20 20 19 20 20 20 19 19 19 20 20
9 8 8 8 8 8 7 7 6 6 6 6 5 4 4 5 5 5 7 10 13 15 16 17 18 19 20 21 22 23 24 25 26 27 28 28 29 30 31 32 32 32 32 32 32 32 32 33 32 31 30 30 29 29 29 29 29 29 28 28 28 27 26 26 25 25 25 25 25 24 22 21 20 20 20 20 20 20 20 19 19 20 20 20 20
9 9 8 8 8 8 7 7 6 6 6 6 5 5 4 4 4 3 3 5 7 10 13 15 17 19 20 21 22 23 24 25 26 26 27 27 28 29 29 30 30 30 31 31 31 31 32 32 31 30 29 28 29 30 30 29 28 28 27 27 27 27 26 25 24 25 25 25 24 23 21 20 20 20 20 21 21 20 20 19 19 20 20 20 21
9 9 8 8 7 7 7 7 6 6 5 5 5 5 5 4 3 3 2 2 2 4 7 10 13 15 18 20 21 22 23 23 24 24 25 25 26 27 28 28 28 28 29 29 29 30 30 30 30 29 28 28 28 29 29 29 28 28 27 27 26 26 25 25 24 24 25 24 23 22 21 20 20 20 20 21 21 21 20 20 20 20 20 21 21
9 9 8 7 7 6 6 6 6 5 5 5 4 4 4 3 3 2 2 2 1 1 1 3 6 9 12 15 17 19 20 21 21 22 22 22 23 24 25 26 26 26 26 26 26 26 27 28 28 27 27 26 27 27 28 27 27 27 27 26 25 24 24 24 24 24 25 24 23 21 21 20 20 20 20 20 20 20 20 20 20 21 21 21 22
Wind_Direction
227 228 228 228 228 229 230 231 230 230 229 230 231 232 232 232 232 233 237 240 239 240 243 244 244 244 244 243 243 244 246 248 249 251 254 257 260 263 264 263 264 265 266 266 267 268 268 269 271 273 274 275 275 275 275 275 276 276 278 280 282 284 286 289 293 299 303 302 299 296 294 296 299 300 303 306 308 310 314 315 315 316 316 316 317
227 228 228 227 227 228 230 231 231 231 230 230 231 232 233 233 234 236 239 239 239 240 242 243 244 245 245 245 244 243 245 246 248 250 252 255 257 260 262 262 263 264 264 264 265 266 267 268 271 274 275 274 275 276 275 274 275 276 277 278 280 282 284 287 291 296 301 303 300 297 295 296 298 300 303 306 308 311 313 315 315 316 315 315 317
227 228 228 228 228 228 229 231 232 231 231 231 231 232 233 234 235 237 237 237 238 239 241 242 244 245 246 246 244 243 244 245 247 249 251 254 256 258 260 261 262 262 262 263 263 264 266 268 271 273 273 273 274 276 275 274 275 275 276 277 278 280 283 286 290 294 298 300 298 296 295 296 298 301 303 306 309 311 313 315 315 315 315 315 316
226 227 228 228 229 229 230 230 231 231 231 232 232 232 233 234 235 236 235 235 237 239 240 242 243 244 246 246 245 243 243 244 246 247 251 253 255 257 259 260 261 261 261 262 262 263 265 267 270 272 271 271 271 273 274 273 274 274 275 276 278 280 283 285 289 292 294 296 296 295 295 296 298 301 304 306 308 311 313 315 315 316 316 316 316
225 227 227 228 229 229 230 230 231 231 232 232 232 232 233 235 236 236 235 236 237 239 241 242 243 245 246 245 244 244 243 243 245 246 249 253 254 256 258 259 260 260 260 261 262 263 264 266 268 269 269 269 270 270 271 271 273 274 276 278 279 282 285 287 288 289 290 292 293 294 295 296 298 301 304 306 308 310 312 314 316 317 317 317 317
226 226 227 228 229 229 230 230 231 232 232 233 233 233 234 235 235 235 235 236 237 239 241 242 243 245 245 243 243 244 243 242 244 246 248 251 253 255 257 258 259 259 260 261 262 263 264 265 266 266 267 268 268 269 269 270 273 275 276 278 280 283 285 286 287 287 288 289 291 293 295 296 298 301 304 306 308 309 311 312 314 316 317 317 317
226 226 227 228 229 230 230 231 232 232 233 234 233 233 234 235 234 235 235 236 237 239 240 242 243 244 244 242 242 243 243 242 243 245 247 249 251 254 256 257 257 258 259 260 262 263 264 264 264 265 265 267 268 268 269 271 273 275 277 278 280 282 283 284 284 285 288 290 290 292 295 296 298 301 305 307 308 308 310 311 312 314 315 316 317
229 228 229 229 229 230 231 231 233 233 233 234 234 234 235 235 235 235 235 236 237 237 239 241 242 242 242 241 241 242 242 242 243 244 246 248 250 252 254 256 256 256 257 259 261 263 263 263 263 263 265 266 267 268 269 271 273 274 276 278 278 280 281 282 283 285 288 290 290 292 294 296 297 301 304 307 308 309 310 311 312 314 315 317 318
231 231 231 231 231 231 232 232 233 233 234 234 234 235 235 234 235 235 235 235 236 237 239 240 240 241 241 241 240 241 242 243 243 244 245 247 247 249 253 254 254 254 256 257 259 261 262 262 262 262 263 265 266 267 268 269 271 273 275 276 276 278 280 281 283 285 288 290 291 292 294 294 296 299 302 305 306 308 310 311 312 312 315 318 319
233 233 232 232 232 232 232 232 233 234 234 234 234 235 235 234 234 235 235 235 236 237 239 239 239 239 240 239 239 240 242 243 243 243 244 245 246 247 251 253 253 253 254 256 258 260 260 261 261 260 260 263 265 265 265 267 269 271 273 275 275 276 278 280 282 285 287 290 292 293 292 292 293 296 301 304 306 308 310 310 310 312 315 318 319
235 234 232 232 232 232 232 232 233 234 235 235 234 235 235 234 234 234 234 235 236 237 238 238 238 238 239 239 238 239 242 243 243 243 244 244 244 246 249 251 252 252 253 254 256 258 259 260 261 260 259 261 263 263 264 265 267 269 271 273 274 275 277 279 282 285 287 290 292 292 291 290 291 295 300 304 305 307 308 309 310 312 315 317 318
237 236 235 234 233 233 233 233 233 234 234 234 234 234 235 234 233 233 235 236 237 237 237 238 238 238 238 239 238 239 242 243 243 244 243 242 242 244 247 250 251 251 251 253 255 257 257 259 260 260 260 260 261 262 263 264 267 269 270 272 273 274 277 279 282 284 287 289 290 291 291 290 290 293 298 301 302 304 306 308 310 312 313 315 318
238 238 237 237 236 235 234 234 234 234 234 233 233 233 233 233 232 233 235 237 237 237 237 237 238 238 238 239 238 239 241 243 243 243 243 241 241 243 246 249 250 250 250 251 253 254 255 257 259 260 260 259 259 261 263 264 267 268 270 272 273 274 277 280 282 284 286 288 289 290 291 290 289 291 296 299 300 301 304 307 309 311 313 315 317
239 239 239 238 237 235 234 233 234 234 234 233 233 233 233 233 233 233 235 237 236 237 236 236 237 238 239 239 239 239 241 243 243 242 241 240 240 241 244 247 249 250 249 250 251 252 253 255 257 259 259 259 259 259 261 263 265 267 269 271 273 274 277 279 282 284 285 287 289 290 290 290 290 292 296 298 298 300 303 306 309 311 313 315 317
241 241 239 238 238 236 235 234 233 233 233 233 234 234 233 233 233 234 235 236 236 236 236 236 237 237 238 239 240 240 240 241 242 241 240 239 238 240 243 245 247 249 249 248 250 251 252 253 255 257 259 259 259 258 259 261 263 265 268 270 272 274 277 279 282 284 285 287 289 290 290 291 292 294 296 297 298 301 304 306 309 311 313 316 317
241 242 240 238 238 237 237 236 234 234 233 233 233 234 234 234 234 234 235 236 236 236 236 237 237 237 238 239 240 240 240 240 241 240 239 238 237 239 241 243 246 247 247 247 248 250 251 252 254 255 258 260 258 257 258 260 262 264 266 269 272 274 276 279 281 283 284 285 287 290 292 292 292 293 295 296 298 302 305 308 309 311 314 316 317
241 243 241 238 237 237 237 237 236 235 234 233 233 233 234 234 234 235 235 236 236 236 236 237 237 237 238 238 239 240 240 240 240 239 237 236 236 238 240 242 244 246 245 246 247 249 251 251 252 254 256 259 259 256 256 258 260 263 265 267 270 272 274 278 280 282 283 283 284 288 291 291 290 292 293 293 295 301 305 307 308 310 313 315 317
241 242 242 239 237 237 237 237 236 236 235 235 234 234 234 234 235 235 235 236 236 237 237 237 237 237 238 238 239 239 239 239 238 237 236 235 235 237 239 241 243 244 244 245 246 249 250 250 250 252 255 257 258 257 256 257 260 262 263 265 267 269 272 275 278 281 282 282 283 286 288 288 288 290 291 291 294 299 303 304 306 309 312 314 316
240 241 241 240 238 238 238 238 237 236 235 235 235 235 235 235 235 235 236 236 237 237 237 237 237 237 237 238 238 238 238 238 238 236 235 234 235 237 238 240 241 243 243 243 245 247 249 249 249 250 253 255 257 257 256 258 260 261 261 263 265 268 270 273 275 278 278 279 281 283 285 286 287 287 288 290 294 298 301 302 304 307 309 312 315
240 241 241 242 240 239 239 240 239 237 236 236 236 236 236 235 235 236 236 237 237 237 237 237 237 236 237 237 237 237 237 238 237 236 235 234 234 236 238 239 240 241 242 242 244 246 248 249 249 249 250 253 256 258 257 258 260 261 261 262 264 266 269 271 274 275 276 277 280 281 282 284 284 285 287 290 294 297 298 299 302 305 308 310 313
242 242 242 243 242 239 239 240 240 239 238 238 237 236 236 236 236 236 237 237 238 238 237 236 236 236 236 236 236 236 236 237 236 235 234 234 233 234 237 238 240 241 241 241 243 245 247 248 249 248 248 252 256 258 258 257 260 262 262 262 263 265 267 270 273 274 275 277 279 281 281 281 281 282 286 290 293 295 295 296 299 303 306 309 311
243 244 244 243 241 239 239 240 241 240 240 239 238 237 237 237 238 238 237 237 237 238 238 238 237 236 235 236 236 235 235 236 236 235 234 233 232 233 236 238 239 240 241 241 243 245 246 247 248 247 247 251 255 258 258 257 259 262 262 261 263 264 266 269 272 273 274 276 279 280 279 277 277 280 284 288 291 292 293 294 296 300 303 307 309
243 245 244 243 241 240 240 242 243 243 242 241 240 239 238 238 238 238 238 237 237 238 239 239 239 238 236 235 235 235 235 235 235 234 233 233 232 233 235 237 238 239 241 242 243 244 245 247 247 246 247 250 254 257 259 258 259 261 261 260 261 262 264 267 270 271 272 275 278 278 275 273 274 278 283 287 289 291 292 292 295 298 301 304 307
243 244 243 243 243 243 243 244 245 245 243 242 240 239 238 237 238 238 239 238 238 238 238 239 239 239 238 235 234 234 234 234 234 233 232 232 232 232 235 236 237 239 241 243 243 244 245 246 246 245 246 250 254 256 258 259 259 259 259 258 259 260 262 264 266 268 270 273 275 274 271 271 274 277 282 286 288 290 290 291 293 296 300 305 307
242 242 242 243 245 246 247 247 247 246 244 242 240 239 238 238 238 239 240 240 239 239 239 238 239 240 239 236 233 233 233 233 233 232 232 232 231 232 234 236 237 239 241 243 244 243 243 244 244 244 246 250 253 255 258 259 258 257 257 257 257 258 259 261 263 265 268 270 272 270 268 270 275 278 282 286 288 288 289 290 293 296 300 304 307
242 242 243 245 247 249 250 249 248 247 245 242 240 239 238 238 238 239 240 241 241 241 240 239 239 241 240 235 232 232 231 231 232 232 231 231 232 232 234 236 237 239 241 243 243 242 242 242 242 244 246 249 251 254 257 258 257 257 257 257 256 256 257 259 260 262 265 268 269 267 267 271 275 279 281 285 286 286 287 289 292 294 297 300 303
242 243 245 248 249 250 251 251 250 249 247 243 242 242 240 239 239 238 239 242 243 243 242 240 239 240 238 234 231 230 230 229 230 231 230 231 232 232 233 235 237 239 241 242 242 241 241 241 241 243 246 248 251 253 255 257 258 259 259 257 256 256 256 258 258 260 264 267 266 265 267 272 275 277 279 282 283 284 285 286 287 289 293 297 301
244 244 247 250 252 252 253 252 251 251 249 245 244 244 243 240 239 238 239 241 242 243 244 243 240 239 237 232 230 230 229 228 229 230 230 230 231 232 233 234 237 239 240 241 241 241 240 239 241 243 245 248 250 252 254 257 259 260 258 255 254 254 255 256 257 260 264 266 263 263 267 270 273 275 277 279 281 282 283 283 284 287 293 296 299
244 246 248 251 253 255 255 254 253 252 251 247 245 245 244 242 240 239 240 241 241 242 243 243 241 238 236 233 230 229 229 228 229 230 230 229 230 231 231 233 236 238 238 238 238 239 238 239 240 243 246 248 250 252 254 256 259 259 255 252 250 251 251 252 254 259 262 261 259 261 265 268 271 273 274 277 279 279 280 281 283 288 293 296 299
246 248 250 252 254 257 257 257 256 254 252 249 246 245 245 243 240 239 239 240 241 242 243 243 241 238 236 233 231 230 229 228 228 229 229 229 229 229 230 231 234 236 236 235 236 237 237 238 241 243 246 248 251 253 254 257 259 257 253 248 247 247 248 249 253 256 258 256 257 261 264 267 269 270 271 275 277 276 276 278 282 287 291 294 297
248 250 252 254 256 258 258 258 257 256 253 250 247 245 245 243 240 240 240 240 240 241 243 243 241 239 236 232 229 228 229 228 227 227 228 228 228 228 229 230 232 234 234 233 234 235 236 238 241 243 246 248 251 254 255 257 258 255 250 246 245 245 246 249 252 254 254 255 257 260 262 264 265 267 269 272 274 274 274 277 281 285 288 291 294
250 253 255 256 257 258 259 259 258 257 254 250 248 246 246 244 242 240 241 242 241 242 243 242 240 238 236 231 228 229 229 227 226 226 226 227 227 228 228 229 231 233 232 231 232 234 235 237 240 243 246 248 251 254 255 255 254 252 247 244 244 244 246 249 251 251 252 254 255 257 259 261 262 264 267 269 271 272 273 276 279 281 285 288 291
253 254 256 257 258 259 261 260 258 257 255 252 249 247 246 245 243 240 241 242 242 242 243 241 237 235 234 232 230 230 229 226 225 226 226 226 226 227 228 229 231 231 230 229 231 233 235 238 241 243 246 248 251 253 254 252 251 250 246 242 242 243 245 247 248 249 251 252 252 253 256 258 259 262 265 268 270 271 272 274 276 279 282 285 288
257 257 257 257 257 259 262 263 260 258 256 253 250 248 246 244 243 241 241 241 240 241 242 241 236 234 233 231 229 228 226 225 225 225 224 224 225 225 226 228 229 229 229 229 231 233 235 238 242 244 247 249 251 252 252 250 249 249 247 242 241 243 245 245 246 248 250 249 248 251 255 256 258 261 264 266 269 271 272 273 275 278 281 283 286
263 261 258 257 258 260 263 265 263 260 257 254 252 250 247 245 243 242 241 240 239 240 242 242 240 237 235 230 226 224 224 224 224 223 223 223 222 222 224 226 227 227 228 230 231 233 235 239 242 245 247 250 252 252 252 250 249 249 246 242 241 242 243 243 245 247 246 245 246 250 253 255 258 261 264 265 267 268 270 271 273 276 280 283 286
267 264 260 259 259 261 264 265 265 262 259 256 254 252 249 246 244 242 241 240 240 241 243 243 242 238 234 229 224 222 223 223 223 221 220 220 219 220 223 225 226 227 228 229 231 234 237 240 243 246 248 250 252 252 252 251 250 248 245 243 241 240 240 242 244 244 242 242 246 251 253 254 257 260 264 265 265 266 268 269 271 274 278 282 285
272 268 266 263 260 261 263 265 266 265 261 257 255 254 251 246 244 242 241 240 239 240 242 243 240 235 230 227 223 221 220 221 221 220 218 217 218 220 223 224 225 226 227 229 231 235 238 241 244 247 249 250 251 251 252 251 250 248 245 243 240 239 240 241 242 241 240 243 247 250 251 253 256 258 262 264 264 266 267 268 270 273 276 279 283
282 276 274 270 263 262 263 264 266 266 263 258 256 255 251 246 243 241 240 238 238 239 241 242 239 232 226 223 221 219 219 219 219 219 217 216 217 220 222 223 224 225 227 229 232 235 238 241 244 246 248 249 249 249 250 249 248 248 246 242 238 238 240 239 238 238 240 243 246 248 250 252 254 256 259 262 263 265 265 267 269 272 274 277 281
295 289 287 283 274 268 266 266 266 265 261 257 256 255 252 248 245 242 240 238 238 239 240 240 237 231 225 222 221 219 219 220 220 220 219 219 220 221 222 223 224 225 228 230 232 235 238 241 244 245 246 247 248 248 248 248 247 247 245 240 237 238 239 237 236 237 240 242 245 247 249 252 253 255 257 260 262 264 263 265 268 270 272 276 280
306 300 297 294 287 280 274 271 267 262 257 256 257 256 253 250 248 245 242 240 238 239 240 240 237 232 226 222 220 219 219 221 222 221 219 219 220 220 221 222 224 226 229 231 233 236 239 241 243 245 245 246 247 248 248 247 246 244 242 239 236 236 236 235 235 237 239 241 243 245 248 251 253 254 255 258 262 263 263 264 266 269 271 275 278
319 315 310 305 298 291 284 277 271 263 257 256 258 257 254 250 248 246 244 242 239 239 242 241 236 231 226 222 220 220 221 221 219 217 217 218 220 220 221 223 224 227 229 232 234 237 239 241 243 244 245 246 248 248 248 246 243 240 239 237 235 234 234 235 235 236 238 240 241 243 246 248 250 252 254 257 261 264 264 265 267 268 270 274 277
324 325 325 322 315 305 295 286 277 268 260 258 259 259 255 251 246 244 243 242 238 238 242 240 232 227 225 222 220 221 222 221 218 217 219 220 220 220 220 222 225 228 230 232 234 237 239 241 242 243 245 246 246 247 247 243 239 237 237 236 235 234 234 234 234 234 235 237 239 241 244 246 248 250 253 256 260 263 264 266 268 268 270 272 275
324 325 329 332 330 323 312 302 293 281 270 264 262 258 254 250 245 241 240 239 236 235 239 238 230 226 224 222 220 221 222 221 219 220 222 222 221 221 222 224 227 230 232 233 235 238 240 241 242 244 245 245 246 246 245 241 237 236 236 236 233 232 232 232 232 232 233 236 238 240 243 245 247 250 252 255 258 261 264 267 268 269 270 272 274
325 326 329 333 336 336 329 318 309 300 289 279 270 261 254 250 245 241 238 236 234 232 232 233 232 228 225 223 223 224 223 221 219 221 222 223 224 225 226 227 229 231 233 236 238 240 241 242 243 245 245 245 246 246 244 240 237 235 233 231 230 230 230 230 229 230 232 235 237 240 242 245 247 249 251 254 257 261 264 267 268 269 269 271 272
325 327 331 335 340 345 345 338 325 314 305 294 284 273 261 254 249 244 239 236 233 230 229 232 235 233 228 224 224 226 226 225 224 225 226 227 229 230 231 231 232 235 237 239 240 242 242 243 244 244 244 244 245 244 241 238 236 233 231 230 230 231 230 228 228 229 231 234 236 239 242 244 246 248 251 255 257 260 264 267 268 268 268 269 271
322 322 326 331 335 341 348 351 345 335 324 312 300 290 278 266 257 248 242 239 237 235 234 235 236 234 232 229 227 227 227 227 228 230 231 233 235 236 237 238 239 240 241 242 242 242 243 243 244 244 243 243 243 242 239 236 234 233 232 232 232 231 230 228 228 229 231 233 235 238 241 244 247 250 253 255 258 261 265 268 268 268 267 269 270
319 317 319 325 327 328 336 348 352 349 344 338 327 313 299 284 271 257 246 242 241 240 239 237 235 234 234 233 232 232 232 232 234 236 237 238 239 240 240 241 241 242 243 243 243 243 243 243 243 243 242 241 240 238 235 233 232 231 231 230 229 228 227 227 227 229 231 233 235 239 242 246 250 252 253 255 258 262 266 268 267 266 267 268 269
316 316 315 318 321 323 326 336 345 348 349 349 347 341 328 312 297 276 256 246 243 242 240 237 236 237 238 237 236 237 237 237 239 240 241 241 241 242 242 242 242 243 244 244 244 243 242 241 240 239 237 237 236 233 231 229 228 227 226 225 224 223 223 224 226 228 230 232 236 240 244 248 250 251 252 254 258 262 265 267 267 266 266 267 268
310 313 310 310 313 317 322 328 333 338 344 347 350 351 347 338 329 317 287 257 248 245 243 240 239 240 240 239 239 240 240 240 241 242 242 241 241 241 242 242 242 242 243 243 241 240 239 238 235 234 233 233 232 230 227 226 226 225 224 224 223 223 224 226 228 228 229 233 238 242 246 248 249 250 252 255 259 262 264 266 266 266 266 267 268
302 304 304 305 307 309 315 323 328 332 337 341 346 351 354 353 350 347 343 323 276 255 248 244 241 239 238 237 238 238 239 239 239 240 240 239 239 239 239 240 240 240 240 239 237 236 234 233 231 229 229 230 229 227 225 225 225 224 223 222 223 224 227 230 230 231 232 234 239 243 246 247 248 250 254 257 260 262 264 264 265 265 266 267 268
295 298 298 299 299 299 306 316 323 330 336 342 346 350 353 355 0 7 11 11 5 328 269 253 245 240 238 236 235 235 235 235 235 235 235 235 235 235 236 236 237 236 236 234 231 229 228 227 226 225 225 226 225 224 223 222 221 220 220 222 224 227 228 230 231 232 233 235 239 243 245 246 248 251 254 258 261 263 264 264 264 265 266 268 269